BAW2X KSFO-EGLL

Flight info

Callsign BAW2X
Flight time N/A
Altitude 33000
Route SNTNA2 DEDHD DCT ILA DCT BKE/N0487F350 DCT STIGS DCT 53N110W DCT YVC DCT 60N095W/N0498F370 65N084W 67N070W/M084F370 DCT CANEL DCT 68N060W 68N050W 67N040W 66N030W/M085F390 63N020W DCT ERAKA/N0481F390 DCT ETSOM DCT KELLY L10 WAL UY53 NUGRA
Aircraft A388/J-SADE2E3FGHIJ3J4J5M1RWXY/LB1D1

Departure

Time N/A
Airport San Francisco International Airport (KSFO)

Arrival

Time 2026-05-04 07:02
Airport London Heathrow Airport (EGLL)
Time Latitude Longitude Altitude Speed Heading
2026-05-04 06:36 52.74148 -2.00323 28761 ft 466 kts 148°
2026-05-04 06:37 52.71435 -1.97495 28247 ft 457 kts 148°
2026-05-04 06:37 52.68755 -1.94708 27493 ft 453 kts 148°
2026-05-04 06:37 52.66106 -1.91961 26836 ft 448 kts 149°
2026-05-04 06:37 52.63476 -1.89244 26134 ft 443 kts 149°
2026-05-04 06:38 52.60876 -1.86565 25477 ft 439 kts 149°
2026-05-04 06:38 52.58290 -1.83905 24829 ft 435 kts 149°
2026-05-04 06:40 52.41791 -1.67023 20657 ft 400 kts 150°
2026-05-04 06:40 52.39440 -1.64631 20141 ft 394 kts 150°
2026-05-04 06:40 52.37150 -1.62301 20024 ft 382 kts 150°
2026-05-04 06:40 52.34902 -1.60019 20015 ft 380 kts 150°
2026-05-04 06:41 52.32675 -1.57763 20010 ft 381 kts 150°
2026-05-04 06:41 52.30411 -1.55472 19993 ft 381 kts 150°
2026-05-04 06:41 52.28155 -1.53191 19993 ft 381 kts 150°
2026-05-04 06:41 52.25899 -1.50912 19992 ft 380 kts 150°
2026-05-04 06:42 52.23651 -1.48643 19992 ft 380 kts 150°
2026-05-04 06:42 52.21439 -1.46298 19928 ft 380 kts 146°
2026-05-04 06:42 52.19392 -1.43546 19485 ft 382 kts 141°
2026-05-04 06:44 52.05194 -1.23679 15011 ft 359 kts 141°
2026-05-04 06:44 52.03341 -1.21108 14981 ft 341 kts 141°
2026-05-04 06:44 52.01586 -1.18676 14986 ft 324 kts 141°
2026-05-04 06:45 51.99911 -1.16358 14981 ft 309 kts 141°
2026-05-04 06:45 51.98310 -1.14146 14987 ft 295 kts 141°
2026-05-04 06:45 51.96778 -1.12032 14987 ft 282 kts 142°
2026-05-04 06:45 51.95317 -1.10017 14974 ft 269 kts 142°
2026-05-04 06:46 51.93916 -1.08087 14909 ft 259 kts 142°
2026-05-04 06:46 51.92562 -1.06223 14761 ft 252 kts 142°
2026-05-04 06:46 51.91242 -1.04409 14549 ft 250 kts 142°
2026-05-04 06:46 51.89919 -1.02592 14261 ft 249 kts 142°
2026-05-04 06:48 51.82647 -0.87540 12352 ft 244 kts 119°
2026-05-04 06:48 51.81890 -0.85075 12063 ft 244 kts 119°
2026-05-04 06:49 51.81133 -0.82616 11832 ft 242 kts 119°
2026-05-04 06:50 51.76018 -0.65980 10189 ft 232 kts 118°
2026-05-04 06:51 51.75302 -0.63658 9962 ft 232 kts 119°
2026-05-04 06:51 51.74584 -0.61336 9724 ft 230 kts 118°
2026-05-04 06:51 51.73869 -0.59024 9478 ft 229 kts 118°
2026-05-04 06:51 51.73160 -0.56732 9251 ft 228 kts 118°
2026-05-04 06:52 51.72416 -0.54487 8984 ft 226 kts 126°
2026-05-04 06:52 51.71481 -0.52449 8727 ft 225 kts 128°
2026-05-04 06:52 51.70553 -0.50413 8627 ft 226 kts 128°
2026-05-04 06:52 51.69630 -0.48369 8475 ft 225 kts 127°
2026-05-04 06:53 51.68705 -0.46311 8292 ft 226 kts 128°
2026-05-04 06:53 51.67782 -0.44260 8085 ft 225 kts 128°
2026-05-04 06:53 51.66875 -0.42252 7893 ft 225 kts 128°
2026-05-04 06:53 51.65950 -0.40209 7657 ft 224 kts 128°
2026-05-04 06:54 51.65037 -0.38190 7472 ft 223 kts 128°
2026-05-04 06:54 51.64124 -0.36177 7264 ft 222 kts 127°
2026-05-04 06:54 51.63212 -0.34164 7071 ft 223 kts 127°
2026-05-04 06:54 51.62302 -0.32159 7018 ft 221 kts 128°
2026-05-04 06:55 51.61396 -0.30168 7009 ft 221 kts 128°
2026-05-04 06:55 51.60471 -0.28166 6869 ft 222 kts 128°
2026-05-04 06:55 51.59569 -0.26214 6820 ft 217 kts 128°
2026-05-04 06:55 51.58694 -0.24304 6754 ft 206 kts 127°
2026-05-04 06:56 51.57895 -0.22543 6499 ft 193 kts 128°
2026-05-04 06:57 51.51613 -0.12435 3808 ft 192 kts 209°
2026-05-04 06:58 51.50580 -0.13785 3636 ft 193 kts 228°
2026-05-04 06:58 51.49652 -0.15329 3395 ft 192 kts 227°
2026-05-04 06:58 51.48727 -0.16889 3134 ft 193 kts 233°
2026-05-04 06:58 51.48131 -0.18773 2993 ft 189 kts 256°
2026-05-04 06:59 51.47902 -0.20849 2911 ft 190 kts 267°
2026-05-04 06:59 51.47837 -0.22919 2658 ft 182 kts 271°
2026-05-04 06:59 51.47830 -0.24880 2411 ft 173 kts 271°
2026-05-04 06:59 51.47816 -0.26809 2167 ft 172 kts 271°
2026-05-04 07:01 51.47781 -0.38516 733 ft 143 kts 271°
2026-05-04 07:01 51.47777 -0.40117 522 ft 143 kts 270°
2026-05-04 07:02 51.47769 -0.41703 313 ft 142 kts 270°
2026-05-04 07:02 51.47766 -0.43288 139 ft 142 kts 270°
2026-05-04 07:02 51.47767 -0.44753 97 ft 105 kts 270°
2026-05-04 07:02 51.47761 -0.45513 93 ft 33 kts 269°
2026-05-04 07:03 51.47759 -0.45675 92 ft 11 kts 265°
2026-05-04 07:03 51.47736 -0.45819 92 ft 15 kts 242°
2026-05-04 07:03 51.47664 -0.45948 95 ft 17 kts 223°
2026-05-04 07:03 51.47597 -0.46097 93 ft 17 kts 260°
2026-05-04 07:04 51.47594 -0.46290 94 ft 18 kts 270°
2026-05-04 07:04 51.47593 -0.46496 94 ft 19 kts 269°
2026-05-04 07:04 51.47591 -0.46725 93 ft 21 kts 270°
2026-05-04 07:04 51.47585 -0.46953 94 ft 21 kts 267°
2026-05-04 07:05 51.47582 -0.47194 95 ft 22 kts 270°
2026-05-04 07:05 51.47581 -0.47440 94 ft 22 kts 269°
2026-05-04 07:05 51.47579 -0.47688 94 ft 22 kts 270°
2026-05-04 07:05 51.47578 -0.47815 94 ft 6 kts 264°
2026-05-04 07:06 51.47501 -0.47872 93 ft 10 kts 179°
2026-05-04 07:06 51.47422 -0.47873 94 ft 13 kts 181°
2026-05-04 07:06 51.47336 -0.47875 91 ft 8 kts 186°
2026-05-04 07:07 51.47307 -0.47918 93 ft 5 kts 265°